Погода в Эркине

Узбекистан     41°13′38″N   69°10′04″E
темп.,
°C
ветер,
м/с
пор.,
м/с
влажн.,
%
обл.,
%
осадки,
мм/ч
давл.,
гПа
погр.,
м
27 февраля, сб
сб2723:00−3св1149100 0.0 1031214
02:00−2ссв1149100 0.0 1029189
05:00−2ссз1249100 0.0 1029177
08:00−2всв1159100 0.0 1029108
11:00+1юв2346100 0.0 1030405
14:00+4ююв464378 0.0 10291355
17:00+4ююв355140 0.0 1029652
20:00+1юв23540 0.0 103169
28 февраля, вс
вс2823:000всв33500 0.0 103058
02:000всв24470 0.0 102967
05:000всв11490 0.0 102847
08:000св12490 0.0 102656
11:00+5зюз01360 0.0 1024279
14:00+8с11300 0.0 1021412
17:00+9с22290 0.0 1020314
20:00+5ссв22500 0.0 102251
1 марта, пн
пн123:00+5св225543 0.0 102130
02:00+4всв1253100 0.0 102123
05:00+3в1251100 0.0 102122
08:00+4всв2247100 0.0 102123
11:00+11вюв012868 0.0 1020187
14:00+15вюв11200 0.0 1019440
17:00+15в11240 0.0 101828
20:00+11вюв23410 0.0 102032
2 марта, вт
вт223:00+10вюв23380 0.0 102138
02:00+8ююв223546 0.0 102126
05:00+8ссз223673 0.0 102123
08:00+8с2336100 0.0 102233
11:00+12ссз2325100 0.0 1022384
14:00+14ссз3424100 0.0 1020593
17:00+14сз2430100 0.0 1020543
20:00+12ссв2239100 0.0 102242
3 марта, ср
ср323:00+11в3347100 0.0 102276
02:00+11ююв3649100 0.0 1021270
05:00+9ююв3477100 0.8 1021271
08:00+8юв5776100 0.3 1021430
11:00+9ююв3575100 0.4 1021461
14:00+10зсз1174100 1.5 1020438
17:00+8юв3481100 6.8 1020381
20:00+8вюв477792 0.9 1020312